Main page
METAR-TAF:

METAR-TAF

Airports :

Tafraoui, Algeria

Oran Tafraoui Airport

latitude: 35-32-33N, longitude: 000-31-56W, elevation: 112 m

Current weather observation

The report was made 49 minutes ago, at 11:00 UTC
Calm wind
Temperature 21°C
Humidity 30%
Pressure 1024 hPa
Visibility 10 km or more
no clouds below 1500 m and no cumulonimbus

METAR: DAOL 201100Z 00000KT CAVOK 21/03 Q1024

Time: 12:49 (11:49 UTC)


TAF: missing

Weather observations and forecasts of more than 4000 airports (METAR and TAF reports).

The available stations are represented by yellow and red dots on the map.

Hover mouse over dot to see the name of the station.

Then click to see weather observations and forecasts.

To change the map : click on the green buttons with a black cross to zoom in, on the green button with a dash to zoom out, or on the green arrows for adjacent maps.


METAR-TAF: